Location: Proctor
(47.8934°N, 114.3048°W)
Time: 06:22:37
(UTC+00:00)

ISS - Pass Details

Date: 26 May 2024
Orbit: 409 x 421 km, 51.6° (Epoch: 13 June)

Event Time Altitude Azimuth Distance (km) Brightness Sun altitude
Rises 04:02:04 0° 292° (WNW) 2,377 1.7 -6.2°
Reaches altitude 10° 04:04:11 10° 289° (WNW) 1,508 0.3 -6.4°
Maximum altitude 04:07:31 57° 210° (SSW) 500 -3.4 -6.8°
Drops below altitude 10° 04:10:49 10° 131° (SE) 1,493 -1.7 -7.2°
Enters shadow 04:10:52 10° 131° (SE) 1,517 -1.6 -7.2°
